Datum;Richtung;Anzahl Messungen;Anzahl Fahrzeuge;Durchschnittsgeschwindigkeit;Höchstgeschwindigkeit
08/11/2021 10:00;1;95;95;22.86;38.00
08/11/2021 10:30;1;117;117;22.15;43.00
08/11/2021 11:00;1;116;116;22.47;39.00
08/11/2021 11:30;1;118;118;21.80;44.00
08/11/2021 13:00;1;54;54;48.65;116.00
08/11/2021 13:30;1;119;119;43.11;61.00
08/11/2021 14:00;1;92;92;42.66;64.00
08/11/2021 14:30;1;99;99;42.81;61.00
08/11/2021 15:00;1;136;136;40.32;63.00
08/11/2021 15:30;1;161;161;41.42;57.00
08/11/2021 16:00;1;114;114;42.90;72.00
08/11/2021 16:30;1;159;159;39.66;66.00
08/11/2021 17:00;1;182;182;39.23;87.00
08/11/2021 17:30;1;171;171;37.62;62.00
08/11/2021 18:00;1;124;124;38.60;72.00
08/11/2021 18:30;1;136;136;38.46;66.00
08/11/2021 19:00;1;93;93;39.18;64.00
08/11/2021 19:30;1;90;90;39.48;58.00
08/11/2021 20:00;1;64;64;39.78;65.00
08/11/2021 20:30;1;58;58;42.41;65.00
08/11/2021 21:00;1;40;40;42.35;70.00
08/11/2021 21:30;1;37;37;39.92;64.00
08/11/2021 22:00;1;18;18;43.56;64.00
08/11/2021 22:30;1;14;14;45.36;60.00
08/11/2021 23:00;1;6;6;42.83;75.00
08/11/2021 23:30;1;6;6;43.17;57.00
09/11/2021 00:00;1;6;6;41.17;52.00
09/11/2021 00:30;1;4;4;34.75;44.00
09/11/2021 01:00;1;2;2;44.50;46.00
09/11/2021 01:30;1;1;1;47.00;47.00
09/11/2021 02:00;1;2;2;41.50;43.00
09/11/2021 03:30;1;2;2;54.50;63.00
09/11/2021 04:30;1;1;1;60.00;60.00
09/11/2021 05:00;1;7;7;45.00;55.00
09/11/2021 05:30;1;10;10;46.90;74.00
09/11/2021 06:00;1;17;17;44.29;59.00
09/11/2021 06:30;1;38;38;46.34;76.00
09/11/2021 07:00;1;47;47;45.21;55.00
09/11/2021 07:30;1;84;84;44.86;60.00
09/11/2021 08:00;1;83;83;44.55;59.00
09/11/2021 08:30;1;83;83;44.90;62.00
09/11/2021 09:00;1;65;65;43.80;64.00
09/11/2021 09:30;1;85;85;42.28;56.00
09/11/2021 10:00;1;78;78;42.99;61.00
09/11/2021 10:30;1;59;59;45.00;63.00
09/11/2021 11:00;1;60;60;41.78;67.00
09/11/2021 11:30;1;109;109;40.08;73.00
09/11/2021 12:00;1;102;102;41.46;61.00
09/11/2021 12:30;1;101;101;42.66;66.00
09/11/2021 13:00;1;117;117;42.62;76.00
09/11/2021 13:30;1;126;126;42.41;63.00
09/11/2021 14:00;1;87;87;41.51;61.00
09/11/2021 14:30;1;110;110;42.03;60.00
09/11/2021 15:00;1;138;138;40.92;67.00
09/11/2021 15:30;1;121;121;40.63;59.00
09/11/2021 16:00;1;123;123;41.98;72.00
09/11/2021 16:30;1;166;166;40.86;61.00
09/11/2021 17:00;1;165;165;39.36;59.00
09/11/2021 17:30;1;165;165;38.44;57.00
09/11/2021 18:00;1;134;134;38.32;73.00
09/11/2021 18:30;1;170;170;39.11;56.00
09/11/2021 19:00;1;117;117;39.47;56.00
09/11/2021 19:30;1;60;60;41.62;58.00
09/11/2021 20:00;1;95;95;39.01;70.00
09/11/2021 20:30;1;55;55;41.42;90.00
09/11/2021 21:00;1;33;33;42.82;57.00
09/11/2021 21:30;1;22;22;43.23;56.00
09/11/2021 22:00;1;23;23;43.74;59.00
09/11/2021 22:30;1;11;11;40.91;59.00
09/11/2021 23:00;1;32;32;36.03;57.00
09/11/2021 23:30;1;5;5;33.00;47.00
10/11/2021 00:00;1;10;10;41.40;64.00
10/11/2021 00:30;1;6;6;38.33;60.00
10/11/2021 01:00;1;5;5;34.60;39.00
10/11/2021 02:00;1;2;2;39.00;57.00
10/11/2021 03:30;1;3;3;49.00;50.00
10/11/2021 04:30;1;1;1;59.00;59.00
10/11/2021 05:00;1;4;4;49.50;57.00
10/11/2021 05:30;1;7;7;57.14;88.00
10/11/2021 06:00;1;16;16;44.75;55.00
10/11/2021 06:30;1;38;38;45.97;69.00
10/11/2021 07:00;1;44;44;45.14;61.00
10/11/2021 07:30;1;90;90;46.11;61.00
10/11/2021 08:00;1;71;71;44.39;54.00
10/11/2021 08:30;1;72;72;45.11;67.00
10/11/2021 09:00;1;59;59;42.58;62.00
10/11/2021 09:30;1;74;74;42.22;67.00
10/11/2021 10:00;1;78;78;44.74;65.00
10/11/2021 10:30;1;60;60;43.45;60.00
10/11/2021 11:00;1;78;78;39.55;66.00
10/11/2021 11:30;1;104;104;42.45;72.00
10/11/2021 12:00;1;78;78;42.32;63.00
10/11/2021 12:30;1;108;108;43.49;75.00
10/11/2021 13:00;1;109;109;43.58;66.00
10/11/2021 13:30;1;110;110;39.83;70.00
10/11/2021 14:00;1;95;95;41.27;59.00
10/11/2021 14:30;1;109;109;41.73;57.00
10/11/2021 15:00;1;124;124;39.98;61.00
10/11/2021 15:30;1;121;121;41.10;59.00
10/11/2021 16:00;1;146;146;42.14;67.00
10/11/2021 16:30;1;179;179;39.84;73.00
10/11/2021 17:00;1;193;193;37.97;64.00
10/11/2021 17:30;1;153;153;37.93;58.00
10/11/2021 18:00;1;130;130;37.83;65.00
10/11/2021 18:30;1;143;143;38.12;58.00
10/11/2021 19:00;1;88;88;37.20;55.00
10/11/2021 19:30;1;65;65;41.66;60.00
10/11/2021 20:00;1;89;89;41.30;90.00
10/11/2021 20:30;1;53;53;43.45;60.00
10/11/2021 21:00;1;37;37;37.05;52.00
10/11/2021 21:30;1;21;21;44.24;57.00
10/11/2021 22:00;1;34;34;46.12;75.00
10/11/2021 22:30;1;11;11;46.18;56.00
10/11/2021 23:00;1;10;10;42.70;63.00
10/11/2021 23:30;1;11;11;49.82;64.00
11/11/2021 00:00;1;5;5;38.60;57.00
11/11/2021 00:30;1;5;5;50.60;63.00
11/11/2021 01:00;1;3;3;62.33;83.00
11/11/2021 01:30;1;2;2;46.50;49.00
11/11/2021 02:00;1;2;2;40.50;41.00
11/11/2021 02:30;1;1;1;47.00;47.00
11/11/2021 03:00;1;1;1;23.00;23.00
11/11/2021 03:30;1;1;1;43.00;43.00
11/11/2021 04:30;1;1;1;46.00;46.00
11/11/2021 05:00;1;6;6;47.33;50.00
11/11/2021 05:30;1;6;6;53.17;62.00
11/11/2021 06:00;1;15;15;50.13;72.00
11/11/2021 06:30;1;34;34;46.97;62.00
11/11/2021 07:00;1;58;58;46.93;69.00
11/11/2021 07:30;1;101;101;45.05;58.00
11/11/2021 08:00;1;75;75;44.88;60.00
11/11/2021 08:30;1;85;85;44.75;60.00
11/11/2021 09:00;1;57;57;45.04;65.00
11/11/2021 09:30;1;85;85;40.11;65.00
11/11/2021 10:00;1;87;87;43.59;61.00
11/11/2021 10:30;1;68;68;41.24;55.00
11/11/2021 11:00;1;99;99;45.19;63.00
11/11/2021 11:30;1;103;103;42.39;65.00
11/11/2021 12:00;1;87;87;41.80;63.00
11/11/2021 12:30;1;102;102;43.59;69.00
11/11/2021 13:00;1;126;126;41.46;72.00
11/11/2021 13:30;1;120;120;42.98;65.00
11/11/2021 14:00;1;103;103;42.23;64.00
11/11/2021 14:30;1;107;107;42.62;63.00
11/11/2021 15:00;1;131;131;39.85;64.00
11/11/2021 15:30;1;103;103;41.19;60.00
11/11/2021 16:00;1;154;154;41.76;63.00
11/11/2021 16:30;1;163;163;39.77;62.00
11/11/2021 17:00;1;179;179;39.20;70.00
11/11/2021 17:30;1;162;162;37.69;58.00
11/11/2021 18:00;1;127;127;39.61;57.00
11/11/2021 18:30;1;156;156;39.04;71.00
11/11/2021 19:00;1;86;86;40.27;63.00
11/11/2021 19:30;1;65;65;39.66;70.00
11/11/2021 20:00;1;80;80;41.95;60.00
11/11/2021 20:30;1;43;43;39.21;60.00
11/11/2021 21:00;1;45;45;41.60;69.00
11/11/2021 21:30;1;32;32;42.56;69.00
11/11/2021 22:00;1;26;26;40.65;58.00
11/11/2021 22:30;1;14;14;43.14;68.00
11/11/2021 23:00;1;9;9;47.22;56.00
11/11/2021 23:30;1;13;13;48.23;64.00
12/11/2021 00:00;1;9;9;45.44;60.00
12/11/2021 00:30;1;5;5;47.80;57.00
12/11/2021 01:00;1;1;1;50.00;50.00
12/11/2021 02:30;1;2;2;46.50;49.00
12/11/2021 04:30;1;1;1;51.00;51.00
12/11/2021 05:00;1;6;6;51.67;62.00
12/11/2021 05:30;1;8;8;53.88;93.00
12/11/2021 06:00;1;12;12;47.42;61.00
12/11/2021 06:30;1;40;40;45.83;67.00
12/11/2021 07:00;1;45;45;45.67;55.00
12/11/2021 07:30;1;91;91;46.71;71.00
12/11/2021 08:00;1;83;83;44.07;61.00
12/11/2021 08:30;1;73;73;45.63;61.00
12/11/2021 09:00;1;60;60;44.87;69.00
12/11/2021 09:30;1;93;93;43.67;73.00
12/11/2021 10:00;1;62;62;43.18;69.00
12/11/2021 10:30;1;77;77;43.23;61.00
12/11/2021 11:00;1;62;62;45.98;80.00
12/11/2021 11:30;1;115;115;42.89;78.00
12/11/2021 12:00;1;110;110;42.36;62.00
12/11/2021 12:30;1;92;92;43.01;65.00
12/11/2021 13:00;1;134;134;42.18;67.00
12/11/2021 13:30;1;113;113;42.90;65.00
12/11/2021 14:00;1;112;112;42.52;67.00
12/11/2021 14:30;1;124;124;42.75;101.00
12/11/2021 15:00;1;119;119;41.36;63.00
12/11/2021 15:30;1;117;117;40.47;61.00
12/11/2021 16:00;1;131;131;40.98;64.00
12/11/2021 16:30;1;129;129;42.72;68.00
12/11/2021 17:00;1;160;160;39.11;63.00
12/11/2021 17:30;1;121;121;39.32;63.00
12/11/2021 18:00;1;104;104;39.84;65.00
12/11/2021 18:30;1;96;96;40.55;62.00
12/11/2021 19:00;1;68;68;40.87;64.00
12/11/2021 19:30;1;65;65;41.25;56.00
12/11/2021 20:00;1;37;37;41.89;74.00
12/11/2021 20:30;1;33;33;44.36;66.00
12/11/2021 21:00;1;21;21;43.76;58.00
12/11/2021 21:30;1;19;19;45.79;68.00
12/11/2021 22:00;1;14;14;44.21;62.00
12/11/2021 22:30;1;13;13;55.08;77.00
12/11/2021 23:00;1;12;12;42.92;48.00
12/11/2021 23:30;1;10;10;45.50;52.00
13/11/2021 00:00;1;11;11;46.64;55.00
13/11/2021 00:30;1;8;8;47.00;58.00
13/11/2021 01:00;1;5;5;47.40;60.00
13/11/2021 01:30;1;5;5;46.00;61.00
13/11/2021 02:00;1;1;1;21.00;21.00
13/11/2021 02:30;1;2;2;49.00;62.00
13/11/2021 03:00;1;2;2;45.50;49.00
13/11/2021 03:30;1;1;1;41.00;41.00
13/11/2021 04:00;1;3;3;42.67;52.00
13/11/2021 04:30;1;3;3;55.00;58.00
13/11/2021 05:00;1;5;5;49.00;54.00
13/11/2021 05:30;1;6;6;43.17;48.00
13/11/2021 06:00;1;4;4;52.75;57.00
13/11/2021 06:30;1;24;24;48.21;75.00
13/11/2021 07:00;1;12;12;45.17;70.00
13/11/2021 07:30;1;20;20;46.60;73.00
13/11/2021 08:00;1;19;19;46.84;56.00
13/11/2021 08:30;1;30;30;45.67;61.00
13/11/2021 09:00;1;44;44;45.89;55.00
13/11/2021 09:30;1;36;36;45.75;62.00
13/11/2021 10:00;1;34;34;48.76;66.00
13/11/2021 10:30;1;37;37;44.92;61.00
13/11/2021 11:00;1;57;57;45.09;69.00
13/11/2021 11:30;1;64;64;46.23;63.00
13/11/2021 12:00;1;56;56;46.45;68.00
13/11/2021 12:30;1;66;66;43.97;63.00
13/11/2021 13:00;1;49;49;44.61;60.00
13/11/2021 13:30;1;53;53;47.36;74.00
13/11/2021 14:00;1;66;66;47.73;71.00
13/11/2021 14:30;1;57;57;48.68;91.00
13/11/2021 15:00;1;55;55;45.31;58.00
13/11/2021 15:30;1;65;65;45.95;80.00
13/11/2021 16:00;1;56;56;44.41;59.00
13/11/2021 16:30;1;68;68;44.32;77.00
13/11/2021 17:00;1;62;62;42.68;72.00
13/11/2021 17:30;1;57;57;42.67;55.00
13/11/2021 18:00;1;44;44;45.00;56.00
13/11/2021 18:30;1;41;41;46.95;90.00
13/11/2021 19:00;1;30;30;46.27;65.00
13/11/2021 19:30;1;30;30;45.33;58.00
13/11/2021 20:00;1;24;24;43.88;63.00
13/11/2021 20:30;1;25;25;45.04;66.00
13/11/2021 21:00;1;15;15;46.00;73.00
13/11/2021 21:30;1;27;27;46.67;69.00
13/11/2021 22:00;1;16;16;41.81;67.00
13/11/2021 22:30;1;15;15;45.73;59.00
13/11/2021 23:00;1;11;11;43.27;50.00
13/11/2021 23:30;1;10;10;46.90;67.00
14/11/2021 00:00;1;10;10;51.60;79.00
14/11/2021 00:30;1;12;12;47.25;65.00
14/11/2021 01:00;1;6;6;47.33;64.00
14/11/2021 01:30;1;7;7;43.57;46.00
14/11/2021 02:00;1;2;2;45.00;52.00
14/11/2021 02:30;1;3;3;42.33;48.00
14/11/2021 03:00;1;1;1;50.00;50.00
14/11/2021 03:30;1;2;2;59.00;72.00
14/11/2021 04:00;1;5;5;47.00;64.00
14/11/2021 04:30;1;2;2;44.00;45.00
14/11/2021 05:00;1;1;1;58.00;58.00
14/11/2021 05:30;1;3;3;45.67;48.00
14/11/2021 06:00;1;2;2;44.00;45.00
14/11/2021 06:30;1;6;6;45.33;49.00
14/11/2021 07:00;1;3;3;47.00;55.00
14/11/2021 07:30;1;5;5;51.60;64.00
14/11/2021 08:00;1;6;6;46.17;54.00
14/11/2021 08:30;1;11;11;47.64;65.00
14/11/2021 09:00;1;16;16;48.56;61.00
14/11/2021 09:30;1;20;20;48.45;58.00
14/11/2021 10:00;1;25;25;48.64;64.00
14/11/2021 10:30;1;34;34;46.82;62.00
14/11/2021 11:00;1;36;36;46.92;72.00
14/11/2021 11:30;1;40;40;46.85;63.00
14/11/2021 12:00;1;47;47;46.74;61.00
14/11/2021 12:30;1;47;47;48.83;66.00
14/11/2021 13:00;1;39;39;44.46;56.00
14/11/2021 13:30;1;52;52;47.08;71.00
14/11/2021 14:00;1;53;53;47.45;100.00
14/11/2021 14:30;1;54;54;48.83;69.00
14/11/2021 15:00;1;52;52;48.37;71.00
14/11/2021 15:30;1;51;51;47.37;73.00
14/11/2021 16:00;1;57;57;45.79;62.00
14/11/2021 16:30;1;56;56;44.21;59.00
14/11/2021 17:00;1;71;71;43.72;60.00
14/11/2021 17:30;1;48;48;43.35;54.00
14/11/2021 18:00;1;51;51;43.71;58.00
14/11/2021 18:30;1;45;45;43.13;56.00
14/11/2021 19:00;1;42;42;44.93;71.00
14/11/2021 19:30;1;41;41;43.05;50.00
14/11/2021 20:00;1;26;26;48.19;64.00
14/11/2021 20:30;1;28;28;48.75;79.00
14/11/2021 21:00;1;26;26;45.35;66.00
14/11/2021 21:30;1;22;22;48.14;74.00
14/11/2021 22:00;1;15;15;44.27;70.00
14/11/2021 22:30;1;9;9;48.78;60.00
14/11/2021 23:00;1;5;5;43.80;48.00
14/11/2021 23:30;1;3;3;43.67;47.00
15/11/2021 00:00;1;9;9;45.22;68.00
15/11/2021 00:30;1;4;4;34.75;50.00
15/11/2021 01:00;1;1;1;21.00;21.00
15/11/2021 01:30;1;2;2;53.50;63.00
15/11/2021 02:00;1;2;2;44.00;48.00
15/11/2021 04:30;1;1;1;53.00;53.00
15/11/2021 05:00;1;4;4;51.00;59.00
15/11/2021 05:30;1;17;17;52.76;82.00
15/11/2021 06:00;1;9;9;43.22;50.00
15/11/2021 06:30;1;42;42;44.40;57.00
15/11/2021 07:00;1;54;54;44.67;69.00
15/11/2021 07:30;1;94;94;45.46;60.00
15/11/2021 08:00;1;73;73;45.44;62.00
15/11/2021 08:30;1;81;81;42.91;59.00
15/11/2021 09:00;1;57;57;44.81;63.00
15/11/2021 09:30;1;72;72;43.25;64.00
15/11/2021 10:00;1;85;85;43.24;62.00
15/11/2021 10:30;1;71;71;44.32;56.00
15/11/2021 11:00;1;75;75;44.04;63.00
15/11/2021 11:30;1;110;110;42.02;61.00
15/11/2021 12:00;1;81;81;41.36;56.00
15/11/2021 12:30;1;90;90;43.57;62.00
15/11/2021 13:00;1;109;109;42.72;66.00
15/11/2021 13:30;1;118;118;41.74;66.00
15/11/2021 14:00;1;83;83;42.51;60.00
15/11/2021 14:30;1;95;95;44.72;60.00
15/11/2021 15:00;1;134;134;41.36;64.00
15/11/2021 15:30;1;123;123;42.79;75.00
15/11/2021 16:00;1;133;133;42.07;64.00
15/11/2021 16:30;1;147;147;41.17;78.00
15/11/2021 17:00;1;184;184;36.75;55.00
15/11/2021 17:30;1;162;162;38.13;58.00
15/11/2021 18:00;1;141;141;38.39;67.00
15/11/2021 18:30;1;127;127;39.39;64.00
15/11/2021 19:00;1;86;86;37.87;59.00
15/11/2021 19:30;1;51;51;38.29;66.00
15/11/2021 20:00;1;79;79;40.09;59.00
15/11/2021 20:30;1;46;46;44.59;70.00
15/11/2021 21:00;1;31;31;43.48;71.00
15/11/2021 21:30;1;36;36;39.08;61.00
15/11/2021 22:00;1;35;35;40.94;58.00
15/11/2021 22:30;1;20;20;44.90;57.00
15/11/2021 23:00;1;11;11;46.27;69.00
15/11/2021 23:30;1;10;10;38.10;57.00
16/11/2021 00:00;1;7;7;47.29;80.00
16/11/2021 00:30;1;3;3;46.00;47.00
16/11/2021 02:00;1;2;2;47.00;48.00
16/11/2021 02:30;1;2;2;36.50;48.00
16/11/2021 04:00;1;1;1;49.00;49.00
16/11/2021 04:30;1;3;3;48.67;52.00
16/11/2021 05:00;1;4;4;59.25;91.00
16/11/2021 05:30;1;12;12;56.00;100.00
16/11/2021 06:00;1;18;18;43.83;61.00
16/11/2021 06:30;1;34;34;46.12;61.00
16/11/2021 07:00;1;37;37;45.24;62.00
16/11/2021 07:30;1;92;92;46.79;63.00
16/11/2021 08:00;1;91;91;45.38;60.00
16/11/2021 08:30;1;76;76;44.05;59.00
16/11/2021 09:00;1;70;70;45.64;66.00
16/11/2021 09:30;1;79;79;42.96;64.00
16/11/2021 10:00;1;62;62;41.13;69.00
16/11/2021 10:30;1;72;72;43.26;57.00
16/11/2021 11:00;1;81;81;41.94;64.00
16/11/2021 11:30;1;88;88;42.16;63.00
16/11/2021 12:00;1;74;74;43.20;73.00
16/11/2021 12:30;1;103;103;41.83;65.00
16/11/2021 13:00;1;105;105;40.24;65.00
16/11/2021 13:30;1;119;119;41.80;60.00
16/11/2021 14:00;1;94;94;41.01;61.00
16/11/2021 14:30;1;105;105;42.40;77.00
16/11/2021 15:00;1;114;114;40.15;64.00
16/11/2021 15:30;1;123;123;43.10;60.00
16/11/2021 16:00;1;137;137;40.69;69.00
16/11/2021 16:30;1;157;157;40.11;60.00
16/11/2021 17:00;1;171;171;38.01;58.00
16/11/2021 17:30;1;138;138;40.20;58.00
16/11/2021 18:00;1;131;131;36.68;63.00
16/11/2021 18:30;1;152;152;38.38;55.00
16/11/2021 19:00;1;80;80;39.65;64.00
16/11/2021 19:30;1;95;95;41.36;75.00
16/11/2021 20:00;1;102;102;41.57;75.00
16/11/2021 20:30;1;50;50;39.46;57.00
16/11/2021 21:00;1;44;44;40.89;57.00
16/11/2021 21:30;1;29;29;42.00;68.00
16/11/2021 22:00;1;24;24;36.50;59.00
16/11/2021 22:30;1;27;27;40.26;95.00
16/11/2021 23:00;1;10;10;47.10;69.00
16/11/2021 23:30;1;7;7;42.71;67.00
17/11/2021 00:00;1;4;4;43.00;47.00
17/11/2021 00:30;1;3;3;43.33;53.00
17/11/2021 01:00;1;4;4;35.00;49.00
17/11/2021 01:30;1;2;2;37.00;41.00
17/11/2021 03:00;1;1;1;47.00;47.00
17/11/2021 03:30;1;2;2;43.50;49.00
17/11/2021 04:00;1;2;2;46.00;50.00
17/11/2021 04:30;1;3;3;65.67;101.00
17/11/2021 05:00;1;1;1;49.00;49.00
17/11/2021 05:30;1;8;8;59.12;75.00
17/11/2021 06:00;1;13;13;46.00;59.00
17/11/2021 06:30;1;39;39;46.28;60.00
17/11/2021 07:00;1;58;58;45.02;64.00
17/11/2021 07:30;1;93;93;45.27;67.00
17/11/2021 08:00;1;81;81;45.37;61.00
17/11/2021 08:30;1;75;75;43.27;67.00
17/11/2021 09:00;1;80;80;45.61;76.00
17/11/2021 09:30;1;65;65;43.72;69.00
17/11/2021 10:00;1;69;69;43.45;63.00
17/11/2021 10:30;1;64;64;45.44;59.00
17/11/2021 11:00;1;80;80;43.89;63.00
17/11/2021 11:30;1;79;79;42.30;63.00
17/11/2021 12:00;1;102;102;43.25;57.00
17/11/2021 12:30;1;104;104;44.45;99.00
17/11/2021 13:00;1;106;106;42.16;64.00
17/11/2021 13:30;1;103;103;42.43;63.00
17/11/2021 14:00;1;113;113;40.08;57.00
17/11/2021 14:30;1;108;108;41.64;60.00
17/11/2021 15:00;1;113;113;40.53;61.00
17/11/2021 15:30;1;121;121;40.87;61.00
17/11/2021 16:00;1;126;126;39.47;84.00
17/11/2021 16:30;1;140;140;39.06;64.00
17/11/2021 17:00;1;175;175;38.32;63.00
17/11/2021 17:30;1;152;152;37.70;60.00
17/11/2021 18:00;1;110;110;36.46;67.00
17/11/2021 18:30;1;182;182;38.53;64.00
17/11/2021 19:00;1;89;89;39.48;61.00
17/11/2021 19:30;1;62;62;37.55;55.00
17/11/2021 20:00;1;68;68;41.24;65.00
17/11/2021 20:30;1;78;78;42.81;76.00
17/11/2021 21:00;1;46;46;41.89;58.00
17/11/2021 21:30;1;22;22;42.50;62.00
17/11/2021 22:00;1;26;26;45.27;66.00
17/11/2021 22:30;1;23;23;41.96;58.00
17/11/2021 23:00;1;19;19;42.11;74.00
17/11/2021 23:30;1;11;11;50.55;72.00
18/11/2021 00:00;1;3;3;60.67;94.00
18/11/2021 00:30;1;2;2;47.00;58.00
18/11/2021 01:00;1;3;3;44.00;48.00
18/11/2021 02:30;1;1;1;44.00;44.00
18/11/2021 03:30;1;1;1;43.00;43.00
18/11/2021 04:00;1;1;1;44.00;44.00
18/11/2021 04:30;1;1;1;49.00;49.00
18/11/2021 05:00;1;4;4;51.00;53.00
18/11/2021 05:30;1;6;6;50.17;67.00
18/11/2021 06:00;1;16;16;44.75;61.00
18/11/2021 06:30;1;34;34;46.68;67.00
18/11/2021 07:00;1;49;49;44.76;59.00
18/11/2021 07:30;1;81;81;46.09;57.00
18/11/2021 08:00;1;81;81;43.57;59.00
18/11/2021 08:30;1;80;80;43.73;56.00
18/11/2021 09:00;1;73;73;42.68;63.00
18/11/2021 09:30;1;86;86;41.90;71.00
18/11/2021 10:00;1;88;88;43.20;80.00
18/11/2021 10:30;1;53;53;43.13;58.00
18/11/2021 11:00;1;77;77;43.86;60.00
18/11/2021 11:30;1;105;105;42.18;74.00
18/11/2021 12:00;1;93;93;43.09;62.00
18/11/2021 12:30;1;82;82;43.72;62.00
18/11/2021 13:00;1;115;115;41.70;65.00
18/11/2021 13:30;1;97;97;42.71;65.00
18/11/2021 14:00;1;88;88;44.28;66.00
18/11/2021 14:30;1;104;104;44.30;64.00
18/11/2021 15:00;1;143;143;40.48;62.00
18/11/2021 15:30;1;135;135;39.49;58.00
18/11/2021 16:00;1;130;130;41.33;69.00
18/11/2021 16:30;1;162;162;38.61;66.00
18/11/2021 17:00;1;190;190;38.18;63.00
18/11/2021 17:30;1;149;149;39.99;64.00
18/11/2021 18:00;1;118;118;37.65;58.00
18/11/2021 18:30;1;161;161;38.98;59.00
18/11/2021 19:00;1;78;78;40.96;58.00
18/11/2021 19:30;1;51;51;42.98;67.00
18/11/2021 20:00;1;77;77;40.92;63.00
18/11/2021 20:30;1;64;64;41.81;94.00
18/11/2021 21:00;1;34;34;42.62;67.00
18/11/2021 21:30;1;34;34;39.62;71.00
18/11/2021 22:00;1;17;17;41.18;68.00
18/11/2021 22:30;1;15;15;41.93;62.00
18/11/2021 23:00;1;12;12;42.00;63.00
18/11/2021 23:30;1;8;8;41.75;51.00
19/11/2021 00:00;1;6;6;34.67;52.00
19/11/2021 00:30;1;7;7;47.57;52.00
19/11/2021 01:00;1;1;1;44.00;44.00
19/11/2021 01:30;1;4;4;28.25;43.00
19/11/2021 02:00;1;1;1;55.00;55.00
19/11/2021 03:00;1;1;1;65.00;65.00
19/11/2021 04:30;1;3;3;37.67;61.00
19/11/2021 05:00;1;3;3;49.33;61.00
19/11/2021 05:30;1;10;10;48.60;61.00
19/11/2021 06:00;1;16;16;47.56;63.00
19/11/2021 06:30;1;31;31;44.45;60.00
19/11/2021 07:00;1;47;47;46.49;64.00
19/11/2021 07:30;1;90;90;45.96;65.00
19/11/2021 08:00;1;93;93;44.84;59.00
19/11/2021 08:30;1;69;69;44.64;61.00
19/11/2021 09:00;1;85;85;44.56;64.00
19/11/2021 09:30;1;81;81;44.68;70.00
19/11/2021 10:00;1;72;72;42.49;63.00
19/11/2021 10:30;1;72;72;43.50;61.00
19/11/2021 11:00;1;78;78;41.74;63.00
19/11/2021 11:30;1;111;111;43.81;60.00
19/11/2021 12:00;1;103;103;43.14;66.00
19/11/2021 12:30;1;101;101;44.63;63.00
19/11/2021 13:00;1;144;144;42.19;66.00
19/11/2021 13:30;1;132;132;44.88;80.00
19/11/2021 14:00;1;122;122;42.57;67.00
19/11/2021 14:30;1;123;123;41.88;71.00
19/11/2021 15:00;1;120;120;42.25;65.00
19/11/2021 15:30;1;127;127;42.10;65.00
19/11/2021 16:00;1;114;114;43.49;75.00
19/11/2021 16:30;1;128;128;39.01;59.00
19/11/2021 17:00;1;142;142;39.24;70.00
19/11/2021 17:30;1;125;125;39.04;71.00
19/11/2021 18:00;1;129;129;39.12;66.00
19/11/2021 18:30;1;97;97;40.79;55.00
19/11/2021 19:00;1;65;65;39.82;54.00
19/11/2021 19:30;1;59;59;42.68;58.00
19/11/2021 20:00;1;43;43;43.37;64.00
19/11/2021 20:30;1;28;28;44.32;59.00
19/11/2021 21:00;1;24;24;44.00;68.00
19/11/2021 21:30;1;25;25;44.24;57.00
19/11/2021 22:00;1;19;19;40.84;52.00
19/11/2021 22:30;1;24;24;41.46;52.00
19/11/2021 23:00;1;17;17;50.24;85.00
19/11/2021 23:30;1;5;5;47.40;55.00
20/11/2021 00:00;1;10;10;43.70;54.00
20/11/2021 00:30;1;7;7;49.43;56.00
20/11/2021 01:00;1;4;4;42.00;49.00
20/11/2021 01:30;1;3;3;47.33;49.00
20/11/2021 02:00;1;3;3;48.67;50.00
20/11/2021 02:30;1;4;4;51.75;63.00
20/11/2021 03:00;1;2;2;40.00;50.00
20/11/2021 04:30;1;3;3;59.33;82.00
20/11/2021 05:00;1;2;2;54.00;55.00
20/11/2021 05:30;1;6;6;49.50;55.00
20/11/2021 06:00;1;8;8;48.00;58.00
20/11/2021 06:30;1;8;8;44.38;48.00
20/11/2021 07:00;1;9;9;45.78;60.00
20/11/2021 07:30;1;30;30;48.73;62.00
20/11/2021 08:00;1;26;26;46.50;64.00
20/11/2021 08:30;1;34;34;49.82;67.00
20/11/2021 09:00;1;37;37;46.41;69.00
20/11/2021 09:30;1;37;37;45.43;58.00
20/11/2021 10:00;1;49;49;48.47;87.00
20/11/2021 10:30;1;55;55;45.95;66.00
20/11/2021 11:00;1;43;43;46.58;58.00
20/11/2021 11:30;1;55;55;46.85;64.00
20/11/2021 12:00;1;69;69;46.00;66.00
20/11/2021 12:30;1;52;52;48.63;82.00
20/11/2021 13:00;1;65;65;44.65;61.00
20/11/2021 13:30;1;62;62;46.97;61.00
20/11/2021 14:00;1;55;55;44.76;58.00
20/11/2021 14:30;1;65;65;44.49;64.00
20/11/2021 15:00;1;59;59;48.20;67.00
20/11/2021 15:30;1;66;66;45.71;73.00
20/11/2021 16:00;1;67;67;44.03;63.00
20/11/2021 16:30;1;57;57;46.44;74.00
20/11/2021 17:00;1;69;69;45.10;61.00
20/11/2021 17:30;1;61;61;44.20;61.00
20/11/2021 18:00;1;47;47;44.11;73.00
20/11/2021 18:30;1;46;46;45.74;68.00
20/11/2021 19:00;1;46;46;43.67;70.00
20/11/2021 19:30;1;41;41;45.49;63.00
20/11/2021 20:00;1;23;23;42.70;58.00
20/11/2021 20:30;1;27;27;46.78;61.00
20/11/2021 21:00;1;14;14;47.93;65.00
20/11/2021 21:30;1;30;30;44.57;57.00
20/11/2021 22:00;1;20;20;48.60;92.00
20/11/2021 22:30;1;14;14;45.93;58.00
20/11/2021 23:00;1;14;14;48.50;68.00
20/11/2021 23:30;1;11;11;50.36;80.00
21/11/2021 00:00;1;12;12;45.00;51.00
21/11/2021 00:30;1;8;8;49.12;53.00
21/11/2021 01:00;1;5;5;45.40;63.00
21/11/2021 01:30;1;4;4;48.00;59.00
21/11/2021 02:00;1;2;2;44.50;46.00
21/11/2021 02:30;1;5;5;43.20;51.00
21/11/2021 03:00;1;1;1;48.00;48.00
21/11/2021 03:30;1;4;4;53.75;78.00
21/11/2021 04:00;1;2;2;52.00;61.00
21/11/2021 05:00;1;2;2;50.00;51.00
21/11/2021 05:30;1;2;2;58.50;67.00
21/11/2021 06:00;1;2;2;46.00;49.00
21/11/2021 06:30;1;4;4;49.75;57.00
21/11/2021 07:00;1;3;3;50.67;61.00
21/11/2021 07:30;1;11;11;48.36;67.00
21/11/2021 08:00;1;8;8;52.12;64.00
21/11/2021 08:30;1;16;16;50.81;75.00
21/11/2021 09:00;1;23;23;47.52;60.00
21/11/2021 09:30;1;28;28;47.89;66.00
21/11/2021 10:00;1;19;19;46.42;64.00
21/11/2021 10:30;1;24;24;45.71;71.00
21/11/2021 11:00;1;32;32;48.53;67.00
21/11/2021 11:30;1;49;49;48.29;76.00
21/11/2021 12:00;1;46;46;47.67;69.00
21/11/2021 12:30;1;55;55;46.35;64.00
21/11/2021 13:00;1;55;55;45.40;59.00
21/11/2021 13:30;1;68;68;46.93;62.00
21/11/2021 14:00;1;59;59;47.44;68.00
21/11/2021 14:30;1;75;75;47.91;86.00
21/11/2021 15:00;1;68;68;44.57;62.00
21/11/2021 15:30;1;47;47;46.91;68.00
21/11/2021 16:00;1;68;68;46.04;64.00
21/11/2021 16:30;1;60;60;46.60;63.00
21/11/2021 17:00;1;61;61;44.56;68.00
21/11/2021 17:30;1;67;67;42.94;76.00
21/11/2021 18:00;1;66;66;44.35;59.00
21/11/2021 18:30;1;44;44;44.59;64.00
21/11/2021 19:00;1;48;48;45.15;60.00
21/11/2021 19:30;1;57;57;45.14;62.00
21/11/2021 20:00;1;34;34;45.94;75.00
21/11/2021 20:30;1;28;28;43.82;60.00
21/11/2021 21:00;1;25;25;42.48;52.00
21/11/2021 21:30;1;18;18;44.50;64.00
21/11/2021 22:00;1;16;16;47.81;66.00
21/11/2021 22:30;1;9;9;41.56;55.00
21/11/2021 23:00;1;15;15;44.67;64.00
21/11/2021 23:30;1;5;5;52.00;89.00
22/11/2021 00:00;1;3;3;41.00;48.00
22/11/2021 00:30;1;2;2;58.50;60.00
22/11/2021 01:00;1;5;5;39.40;64.00
22/11/2021 01:30;1;5;5;40.80;63.00
22/11/2021 02:00;1;2;2;37.00;45.00
22/11/2021 02:30;1;2;2;33.00;42.00
22/11/2021 04:00;1;2;2;44.00;45.00
22/11/2021 04:30;1;2;2;52.00;53.00
22/11/2021 05:00;1;7;7;49.29;62.00
22/11/2021 05:30;1;8;8;53.75;72.00
22/11/2021 06:00;1;16;16;47.12;62.00
22/11/2021 06:30;1;35;35;47.46;73.00
22/11/2021 07:00;1;47;47;45.23;57.00
22/11/2021 07:30;1;91;91;46.18;65.00
22/11/2021 08:00;1;86;86;45.03;82.00
22/11/2021 08:30;1;84;84;44.81;59.00
22/11/2021 09:00;1;59;59;45.10;63.00
22/11/2021 09:30;1;76;76;43.76;65.00
22/11/2021 10:00;1;74;74;42.61;63.00
22/11/2021 10:30;1;89;89;44.60;84.00
22/11/2021 11:00;1;94;94;44.02;62.00
22/11/2021 11:30;1;110;110;41.76;60.00
22/11/2021 12:00;1;73;73;42.18;60.00
22/11/2021 12:30;1;74;74;44.20;65.00
22/11/2021 13:00;1;123;123;41.61;59.00
22/11/2021 13:30;1;112;112;45.11;62.00
22/11/2021 14:00;1;95;95;43.37;64.00
22/11/2021 14:30;1;106;106;42.88;58.00